EHI
1 2 3 3 1 0 0 0 0 0 0 0 0 0 0 0 0 0 0 0 0 0 0 0 0 0 0 0 0 0 0 0 0 0 0 0 0 0 0 0 0 0 0
5 3 3 3 1 0 0 0 0 0 0 0 0 0 0 0 0 0 0 0 0 0 0 0 0 0 0 0 0 0 0 0 0 0 0 0 0 0 0 0 0 0 0
9 4 2 3 2 0 0 0 0 0 0 0 0 0 0 0 0 0 0 0 0 0 0 0 0 0 0 0 0 0 0 0 0 0 0 0 0 0 0 0 0 0 0
10 5 3 4 2 0 0 0 0 0 0 0 0 0 0 0 0 0 0 0 0 0 0 0 0 0 0 0 0 0 0 0 0 0 0 0 0 0 0 0 0 0 0
9 7 7 6 3 0 0 0 0 0 0 0 0 0 0 0 0 0 0 0 0 0 0 0 0 0 0 0 0 0 0 0 0 0 0 0 0 0 0 0 0 0 0
20 17 12 8 4 0 0 0 0 0 0 0 0 0 0 0 0 0 0 0 0 0 0 0 0 0 0 0 0 0 0 0 0 0 0 0 0 0 0 0 0 0 0
39 28 15 9 5 0 0 0 0 0 0 0 0 0 0 0 0 0 0 0 0 0 0 0 0 0 0 0 0 0 0 0 0 0 0 0 0 0 0 0 0 0 0
50 34 15 7 4 0 0 0 0 0 0 0 0 0 0 0 0 0 0 0 0 0 0 0 0 0 0 0 0 0 0 0 0 0 0 0 0 0 0 0 0 0 0
45 29 11 3 2 0 0 0 0 0 0 0 0 0 0 0 0 0 0 0 0 0 0 0 0 0 0 0 0 0 0 0 0 0 0 0 0 0 0 0 0 0 0
30 19 6 1 1 0 0 0 0 0 0 0 0 0 0 0 0 0 0 0 0 0 0 0 0 0 0 0 0 0 0 0 0 0 0 0 0 0 0 0 0 0 0
14 10 4 1 1 1 0 0 0 0 0 0 0 0 0 0 0 0 0 0 0 0 0 0 0 0 0 0 0 0 0 0 0 0 0 0 0 0 0 0 0 0 0
4 5 4 6 7 6 3 1 0 0 0 0 0 0 0 0 0 0 0 0 0 0 0 0 0 0 0 0 0 0 0 0 0 0 0 0 0 0 0 0 0 0 0
1 1 6 17 23 20 13 5 0 0 0 0 0 0 0 0 0 0 0 0 0 0 0 0 0 0 0 0 0 0 0 0 0 0 0 0 0 0 0 0 0 0 0
2 2 9 27 41 40 29 14 4 2 1 0 0 0 0 0 0 0 0 0 0 0 0 0 0 0 0 0 0 0 0 0 0 0 0 0 0 0 0 0 0 0 0
4 10 18 35 51 55 46 27 11 4 2 1 0 0 0 0 0 0 0 0 0 0 0 0 0 0 0 0 0 0 0 0 0 0 0 0 0 0 0 0 0 0 0
5 14 29 44 58 64 60 44 22 10 5 2 1 0 0 0 0 0 0 0 0 0 0 0 0 0 0 0 0 0 0 0 0 0 0 0 0 0 0 0 0 0 0
2 10 27 46 61 70 70 59 38 20 12 7 3 1 0 0 0 0 0 0 0 0 0 0 0 0 0 0 0 0 0 0 0 0 0 0 0 0 0 0 0 0 0
0 3 14 34 56 70 75 70 55 35 24 18 11 4 1 0 0 0 0 0 0 0 0 0 0 0 0 0 0 0 0 0 0 0 0 0 0 0 0 0 0 0 0
0 0 5 19 39 59 73 78 68 51 41 35 23 9 2 0 0 0 0 0 0 0 0 0 0 0 0 0 0 0 0 0 0 0 0 0 0 0 0 0 0 0 0
0 0 2 8 20 39 63 78 76 64 56 48 34 15 3 0 0 0 0 0 0 0 0 0 0 0 0 0 0 0 0 0 0 0 0 0 0 0 0 0 0 0 0
0 0 0 3 9 23 49 73 74 62 52 44 31 16 4 0 0 0 0 0 0 0 0 0 0 0 0 0 0 0 0 0 0 0 0 0 0 0 0 0 0 0 0
0 0 0 1 3 14 38 60 57 40 29 24 18 9 2 0 0 0 0 0 0 0 0 0 0 0 0 0 0 0 0 0 0 0 0 0 0 0 0 0 0 0 0
0 0 0 0 2 12 32 44 34 16 8 6 5 3 0 0 0 0 0 0 0 0 0 0 0 0 0 0 0 0 0 0 0 0 0 0 0 0 0 0 0 0 0
0 0 0 0 3 14 28 30 17 5 0 0 0 0 0 0 0 0 0 0 0 0 0 0 0 0 0 0 0 0 0 0 0 0 0 0 0 0 0 0 0 0 0
0 0 0 0 4 13 20 18 9 3 0 0 0 0 0 0 0 0 0 0 0 0 0 0 0 0 0 0 0 0 0 0 0 0 0 0 0 0 0 0 0 0 0
0 0 0 0 3 9 13 11 6 1 0 0 0 0 0 0 0 0 0 0 0 0 0 0 0 0 0 0 0 0 0 0 0 0 0 0 0 0 0 0 0 0 0
Wind_Speed
11 13 16 16 15 14 14 13 13 13 13 14 15 15 14 13 12 11 10 10 9 9 10 10 9 10 12 13 13 12 10 9 7 6 4 4 5 6 7 6 7 4 7
15 16 16 16 16 15 14 13 12 12 12 13 14 14 13 12 12 11 10 10 11 11 13 13 13 13 14 13 12 10 9 7 5 3 2 1 3 5 7 7 7 4 6
17 16 15 16 16 15 14 13 12 11 11 12 14 13 13 12 12 11 10 10 11 12 13 14 14 14 13 11 10 9 8 6 4 6 7 3 3 5 6 6 5 5 4
17 15 14 16 16 15 14 12 11 10 11 12 13 13 13 12 12 11 11 11 11 12 12 12 12 12 11 10 8 8 6 4 5 8 4 3 4 6 5 5 5 5 5
15 14 16 17 17 15 14 12 11 11 12 12 13 13 12 12 12 11 11 11 11 11 11 11 11 10 9 8 7 6 5 4 7 8 3 3 5 6 5 5 5 6 6
14 15 16 17 17 16 14 12 11 11 12 13 13 13 12 11 11 11 11 11 10 10 10 10 9 8 7 6 5 5 4 5 8 5 1 5 5 6 5 5 5 5 6
14 16 15 17 17 16 14 13 12 11 12 13 13 12 11 9 9 10 11 10 9 8 8 8 7 6 5 4 4 4 4 6 6 4 2 6 5 6 6 7 7 7 7
15 15 14 16 16 16 15 13 12 11 12 12 12 11 10 8 8 10 11 10 8 7 6 6 6 5 4 3 3 3 3 6 7 4 5 6 7 6 7 8 8 9 9
15 15 12 11 12 14 14 13 12 11 10 10 10 9 9 7 7 9 12 10 8 6 5 5 5 5 4 3 3 2 4 6 5 3 6 5 7 8 8 8 9 10 11
11 14 13 12 10 9 9 12 12 11 10 9 9 9 9 7 7 10 11 9 8 6 5 5 5 4 3 2 1 2 5 6 4 3 5 5 9 8 8 9 10 11 12
8 10 12 12 11 10 10 11 11 10 10 9 8 9 8 5 6 7 9 9 8 7 6 5 4 3 4 2 2 3 4 2 3 5 4 7 8 8 9 11 11 12 13
7 8 10 12 11 10 10 9 7 7 7 6 6 7 5 5 5 8 11 10 9 8 7 5 5 4 4 2 2 2 2 5 4 5 5 9 8 9 11 12 12 12 12
9 8 8 10 11 10 7 8 6 5 6 7 8 9 6 4 5 6 4 5 5 6 4 4 4 1 2 2 1 2 3 3 3 4 6 11 10 10 11 12 12 12 12
12 10 8 8 10 10 8 7 6 5 6 6 6 10 6 4 4 5 4 5 5 3 4 3 2 3 3 3 4 3 3 2 3 4 6 12 12 11 11 12 12 12 12
10 12 10 8 9 8 8 6 6 6 6 6 5 6 6 4 4 4 3 3 3 4 3 3 3 4 4 4 3 3 4 4 3 5 5 12 13 12 11 11 11 12 12
7 11 11 10 9 9 7 6 6 6 6 6 5 6 7 5 4 4 4 4 4 4 3 3 4 3 3 3 2 2 3 3 3 5 5 8 12 11 10 10 11 11 12
7 8 12 12 11 11 9 8 6 6 7 6 6 7 7 6 6 5 5 4 4 4 4 4 5 3 3 2 1 2 2 2 2 3 6 5 5 8 8 8 9 10 11
7 7 10 11 11 12 10 9 6 6 7 6 7 7 8 7 7 6 5 4 4 4 4 4 3 3 3 3 2 2 2 1 1 2 4 5 4 3 4 4 7 9 11
9 8 8 10 11 10 10 9 7 6 7 7 7 7 8 8 9 7 5 5 5 4 4 4 4 3 3 2 2 1 1 1 1 2 3 5 4 3 1 1 5 8 10
10 9 9 11 11 9 8 7 6 5 5 5 6 7 9 8 9 8 6 6 6 5 4 4 4 3 3 1 2 1 0 1 1 2 2 3 3 3 2 0 2 4 10
9 9 9 10 11 9 7 8 8 6 4 4 4 7 8 9 9 9 7 7 6 5 5 6 5 4 2 2 2 2 1 1 2 2 2 1 2 3 2 1 1 1 3
10 9 9 9 10 10 8 8 6 5 4 4 4 5 7 9 9 8 8 7 6 6 6 5 5 3 2 2 2 1 2 2 2 2 2 2 2 1 1 1 1 2 2
11 10 8 9 9 10 10 8 7 6 5 3 4 4 6 8 8 8 9 8 7 6 5 5 4 4 3 1 3 2 2 1 3 3 3 2 1 0 1 1 3 3 3
11 10 10 9 9 10 12 13 13 10 7 6 5 5 6 7 8 8 9 9 8 7 6 5 5 3 3 2 1 2 2 2 1 3 4 2 1 1 3 3 3 3 4
7 8 9 9 9 9 12 14 13 9 6 8 8 9 8 7 7 9 9 9 8 7 6 6 5 4 3 3 2 1 1 1 2 2 4 4 4 3 3 4 4 4 4
6 6 6 8 8 9 11 13 12 12 13 14 13 11 8 6 6 8 9 9 8 7 7 6 5 5 4 3 2 1 1 0 0 1 3 3 4 4 5 5 5 5 4
Wind_Direction
127 135 144 138 132 127 122 117 114 113 115 116 115 110 105 99 93 86 79 73 66 66 66 72 86 94 94 89 83 77 70 64 58 44 36 43 54 47 41 25 2 30 55
131 137 143 138 134 129 123 118 115 115 118 121 119 113 108 102 95 87 82 77 71 70 68 70 76 81 81 81 79 73 67 62 47 355 319 258 101 62 37 22 14 16 25
130 136 141 136 134 130 125 121 119 120 124 126 122 117 111 105 98 90 86 83 77 74 72 71 73 75 74 74 73 69 65 53 3 323 304 246 146 74 38 15 5 2 359
130 139 140 136 134 131 127 124 124 126 131 131 126 120 116 110 102 93 89 89 85 81 79 77 76 75 74 73 70 67 61 32 335 320 313 80 96 70 36 7 356 351 340
133 139 134 139 136 133 129 127 128 130 133 132 130 125 122 116 107 99 95 95 92 89 86 83 80 78 75 72 68 64 52 359 325 307 300 78 82 53 33 5 347 339 330
133 129 138 141 139 136 134 132 132 134 135 135 134 131 129 124 115 110 107 105 100 96 91 86 83 81 78 72 64 55 35 341 318 291 53 81 85 46 24 3 351 338 325
132 130 143 143 143 141 139 138 139 140 141 140 138 137 135 129 125 124 121 117 110 101 91 83 80 79 78 68 53 41 11 324 297 294 58 78 69 40 12 5 1 349 338
128 133 144 148 147 147 145 145 145 145 146 147 146 144 137 130 131 139 134 128 122 110 94 83 78 74 67 54 40 23 335 303 314 331 78 81 52 27 14 16 17 21 22
131 136 144 152 152 152 151 151 152 151 151 152 153 145 132 125 130 145 145 140 133 120 103 91 83 78 71 59 38 348 307 300 300 311 69 67 37 23 23 25 25 25 28
134 142 152 159 160 159 158 158 158 156 156 157 151 138 135 137 140 145 148 144 137 125 112 101 95 97 101 101 67 297 303 304 281 38 73 53 37 30 34 40 41 45 48
145 150 158 164 164 165 166 165 161 161 162 159 151 153 156 175 166 154 143 141 140 132 125 120 127 150 151 165 220 279 311 312 20 71 60 49 43 43 53 57 55 54 51
170 168 165 168 167 168 169 160 168 170 168 175 172 171 193 207 157 139 139 145 148 146 144 157 178 201 192 180 229 277 2 2 28 74 55 57 59 64 67 63 57 51 46
180 184 176 169 167 168 162 163 174 173 170 194 184 177 196 175 126 131 147 147 160 163 169 179 192 200 103 95 31 51 52 12 35 71 57 66 68 69 69 65 57 48 40
176 179 183 171 166 169 166 171 172 171 170 187 183 175 180 155 157 165 166 173 175 170 157 154 137 108 83 68 50 31 29 31 68 89 70 73 72 72 69 63 54 43 33
176 171 179 177 169 170 169 174 175 174 172 177 174 169 159 150 165 159 148 140 132 126 124 109 96 88 73 54 43 35 21 21 58 94 85 82 79 74 67 59 49 37 26
194 171 173 178 175 173 174 176 178 175 171 171 165 172 161 157 164 144 131 119 107 102 104 106 92 88 75 60 32 30 30 24 43 102 112 91 87 80 67 55 41 28 16
212 183 173 177 178 177 180 182 182 178 172 170 165 174 168 158 150 137 125 118 116 113 103 87 82 77 72 36 14 50 53 46 21 103 123 118 104 92 78 53 31 17 6
219 203 183 177 178 178 180 184 182 182 176 172 166 172 171 157 143 131 126 126 123 109 99 95 91 85 71 34 9 14 18 64 357 86 109 116 117 111 92 56 24 5 355
218 211 189 170 175 180 178 178 182 184 179 171 167 169 167 154 139 131 130 130 123 111 106 102 69 72 68 27 324 309 22 46 97 100 110 115 111 107 105 4 10 354 344
222 212 194 175 177 181 175 171 175 183 178 166 162 161 156 147 138 131 131 130 121 116 114 110 105 75 61 358 308 307 191 123 154 144 136 136 153 172 187 46 24 352 344
233 220 206 185 181 180 174 172 174 179 165 145 146 145 139 135 133 132 133 129 130 130 135 131 122 104 51 353 0 337 298 216 192 162 160 158 194 194 184 177 71 21 333
241 231 215 199 183 181 177 170 160 143 118 100 105 112 123 127 129 133 133 133 130 124 116 113 116 115 84 31 55 20 357 330 300 221 182 199 223 187 182 44 10 326 312
233 233 224 210 193 180 163 140 118 95 81 86 98 99 106 119 125 130 132 128 125 120 120 118 118 126 140 82 59 92 110 283 322 312 251 216 193 229 283 301 289 282 293
228 224 222 212 198 177 159 153 157 163 160 159 139 122 116 120 127 129 131 130 125 120 121 121 111 114 125 135 110 69 113 127 98 317 320 317 328 306 294 290 291 280 276
239 226 214 206 195 172 162 159 163 160 136 128 127 129 126 128 131 132 132 128 125 122 119 116 115 107 106 121 124 119 109 106 181 199 281 303 320 313 315 300 284 272 264
251 240 213 194 183 164 158 158 163 156 145 145 147 146 141 140 136 133 130 125 121 119 119 120 118 112 101 96 92 94 105 125 305 236 270 293 294 287 298 284 276 266 259